Location: Ku?niki
(51.4449°N, 17.8974°E)
Time: 03:41:17
(UTC+00:00)

NOSS 3-4 (C) - Pass Details

Date: 18 September 2020
Orbit: 886 x 1326 km, 63.4° (Epoch: 19 October)

Event Time Altitude Azimuth Distance (km) Brightness Sun altitude
Exits shadow 20:54:15 37° 42° (NE) 1,459 4.4 -32.4°
Drops below altitude 10° 20:58:04 10° 45° (NE) 2,792 6.0 -32.7°
Sets 21:00:48 0° 46° (NE) 3,810 6.7 -32.9°
